DW9425 Weather Reports


Display with metric or nautical units.
time (UTC)temp
F
wind
direction
speed
MPH
gust
MPH
rain 1hr
in
rain 24hr
in
rain mn
in
humidity
%
barometer
mb
20260905100057 62 75 0.0 2.0 0.00 0.02 0.00 67 1021.1
20260905094546 62 74 0.0 3.0 0.00 0.02 0.00 67 1021.0
20260905093046 62 75 2.0 3.0 0.00 0.02 0.00 69 1021.0
20260905091544 61 75 0.0 1.0 0.00 0.02 0.00 70 1021.1
20260905090043 61 75 0.0 2.0 0.00 0.02 0.00 69 1021.1
20260905084546 62 75 0.0 0.0 0.00 0.02 0.00 68 1021.0
20260905083040 62 75 0.0 0.0 0.00 0.02 0.00 66 1021.0
20260905081538 63 75 0.0 0.0 0.00 0.02 0.00 64 1021.1
20260905080044 64 75 1.0 3.0 0.00 0.02 0.00 63 1021.1
20260905074537 64 75 2.0 4.0 0.00 0.02 0.00 63 1021.1
20260905073038 63 75 2.0 5.0 0.00 0.02 0.00 65 1021.2
20260905071535 62 85 0.0 2.0 0.00 0.02 0.00 69 1021.2
20260905070037 62 85 0.0 0.0 0.00 0.02 0.00 68 1021.2
20260905064534 63 85 0.0 0.0 0.00 0.02 0.00 66 1021.3
20260905063028 63 85 0.0 0.0 0.00 0.02 0.00 65 1021.2
20260905061527 64 85 0.0 0.0 0.00 0.02 0.00 65 1021.3
20260905060033 65 85 0.0 2.0 0.00 0.02 0.00 62 1021.2
20260905054523 66 85 1.0 2.0 0.00 0.02 0.02 59 1021.1
20260905053030 66 85 1.0 4.0 0.00 0.02 0.02 58 1021.1
20260905051523 67 85 2.0 4.0 0.00 0.02 0.02 59 1021.1
20260905050022 67 85 2.0 4.0 0.00 0.02 0.02 61 1021.2
20260905044524 67 85 2.0 4.0 0.00 0.02 0.02 61 1021.3
20260905043020 67 84 3.0 6.0 0.00 0.02 0.02 60 1021.5
20260905041520 67 111 0.0 6.0 0.00 0.02 0.02 60 1021.5
20260905040021 67 123 4.0 7.0 0.00 0.02 0.02 60 1021.6
20260905034519 68 154 5.0 11.0 0.00 0.02 0.02 60 1021.7
20260905033019 68 150 3.0 7.0 0.00 0.02 0.02 60 1021.8
20260905031528 68 131 3.0 8.0 0.00 0.02 0.02 60 1021.9
20260905030027 68 159 3.0 9.0 0.00 0.02 0.02 60 1021.7
20260905024529 68 153 4.0 11.0 0.00 0.02 0.02 59 1021.5
20260905023017 68 128 5.0 12.0 0.00 0.02 0.02 60 1021.2
20260905021517 69 138 7.0 12.0 0.00 0.02 0.02 59 1020.9
20260905020025 69 150 8.0 17.0 0.00 0.02 0.02 58 1020.8
20260905014516 70 140 8.0 21.0 0.00 0.02 0.02 57 1020.7
20260905013015 70 168 12.0 24.0 0.00 0.02 0.02 57 1020.8
20260905011514 71 159 11.0 22.0 0.00 0.02 0.02 56 1020.7
20260905010014 72 184 13.0 23.0 0.00 0.02 0.02 53 1020.7
20260905004513 75 175 14.0 29.0 0.00 0.02 0.02 47 1020.5
20260905003013 79 205 5.0 9.0 0.00 0.02 0.02 36 1019.9
20260905001512 80 209 6.0 9.0 0.00 0.02 0.02 35 1019.7
20260905000012 80 203 3.0 9.0 0.00 0.02 0.02 35 1019.5
20260904234511 81 228 5.0 9.0 0.00 0.02 0.02 34 1019.5
20260904233011 81 250 5.0 9.0 0.00 0.02 0.02 33 1019.4
20260904231510 81 229 7.0 10.0 0.00 0.02 0.02 33 1019.4
20260904230010 82 230 6.0 10.0 0.00 0.02 0.02 33 1019.4
20260904224511 83 217 5.0 12.0 0.00 0.02 0.02 32 1019.3
20260904223016 84 233 3.0 11.0 0.00 0.02 0.02 32 1019.3
20260904221506 83 207 5.0 10.0 0.00 0.02 0.02 33 1019.4
20260904220007 83 244 6.0 10.0 0.00 0.02 0.02 32 1019.5
20260904214505 85 224 5.0 9.0 0.00 0.02 0.02 30 1019.5
20260904213010 86 188 7.0 11.0 0.00 0.02 0.02 29 1019.6
20260904211616 87 267 9.0 12.0 0.00 0.02 0.02 29 1019.8
20260904210100 86 273 5.0 12.0 0.00 0.02 0.02 30 1019.8
20260904204600 85 215 3.0 8.0 0.00 0.02 0.02 31 1020.1
20260904203108 86 274 3.0 8.0 0.00 0.02 0.02 31 1020.2
20260904201555 85 149 3.0 8.0 0.00 0.02 0.02 34 1020.3
20260904194554 84 299 5.0 10.0 0.00 0.02 0.02 33 1020.8
20260904193048 83 252 2.0 8.0 0.00 0.02 0.02 36 1021.0
20260904191540 82 209 5.0 9.0 0.00 0.02 0.02 37 1021.3
20260904190035 80 221 3.0 7.0 0.00 0.02 0.02 37 1021.5
20260904184533 79 319 5.0 12.0 0.00 0.02 0.02 40 1021.8
20260904183029 77 245 6.0 10.0 0.00 0.02 0.02 44 1021.9
20260904181525 75 216 2.0 11.0 0.00 0.02 0.02 46 1022.2
20260904180023 75 236 6.0 11.0 0.00 0.02 0.02 47 1022.2
20260904174521 74 232 4.0 10.0 0.00 0.02 0.02 49 1022.4
20260904173020 74 242 5.0 12.0 0.00 0.02 0.02 50 1022.5
20260904171516 73 205 7.0 10.0 0.00 0.02 0.02 53 1022.6
20260904170017 72 236 4.0 7.0 0.00 0.02 0.02 55 1022.5
20260904164510 71 286 2.0 6.0 0.00 0.02 0.02 59 1022.3
20260904163009 70 290 0.0 4.0 0.00 0.02 0.02 56 1022.2
20260904161507 70 310 0.0 6.0 0.00 0.02 0.02 57 1022.1
20260904160009 70 296 4.0 8.0 0.00 0.02 0.02 58 1022.1
20260904154506 70 298 2.0 8.0 0.00 0.02 0.02 61 1022.1
20260904153002 68 230 2.0 8.0 0.00 0.02 0.02 63 1022.2
20260904151558 67 196 2.0 5.0 0.00 0.02 0.02 66 1022.1
20260904150057 66 201 2.0 4.0 0.00 0.02 0.02 69 1022.1
20260904144556 65 221 0.0 3.0 0.00 0.02 0.02 70 1022.0
20260904143054 64 222 1.0 3.0 0.00 0.02 0.02 75 1021.9
20260904141555 63 222 0.0 2.0 0.00 0.02 0.02 84 1021.9
20260904140051 62 221 0.0 0.0 0.00 0.02 0.02 85 1021.7
20260904134549 62 221 0.0 0.0 0.00 0.02 0.02 86 1021.6
20260904133046 61 222 0.0 0.0 0.00 0.02 0.02 86 1021.3
20260904131555 61 221 0.0 2.0 0.00 0.02 0.02 85 1021.2
20260904130138 61 222 0.0 0.0 0.00 0.02 0.02 85 1021.0
20260904124536 61 221 0.0 1.0 0.00 0.02 0.02 83 1020.9
20260904123034 61 221 0.0 0.0 0.00 0.02 0.02 81 1020.8
20260904121532 61 222 0.0 1.0 0.01 0.02 0.02 80 1020.7
20260904120037 62 221 0.0 2.0 0.02 0.02 0.02 79 1020.7
20260904114528 62 222 1.0 5.0 0.02 0.02 0.02 78 1020.5
20260904113026 63 148 4.0 8.0 0.02 0.02 0.02 76 1020.3
20260904111524 64 259 3.0 7.0 0.01 0.01 0.01 75 1020.5
20260904110019 65 234 0.0 7.0 0.00 0.00 0.00 71 1020.1
20260904104518 66 222 2.0 7.0 0.00 0.00 0.00 67 1020.0
20260904103016 66 65 1.0 3.0 0.00 0.00 0.00 65 1020.1